GEFSCGP_500_meanwind_054.txt.gz
Wind_Speed
14 16 17 19 20 22 22 22 21 21 22 23 23 24 24 24 25 28 32 33 33 32 32 31 32 34 35 36 37 39 40 40 40 39 38 38 37 38 39 40 40 40 40 40
14 15 15 15 15 15 16 19 21 22 24 24 25 25 25 26 26 28 31 31 30 30 30 30 32 32 33 36 39 40 42 42 41 40 41 40 40 39 38 39 39 40 41 41
13 11 11 10 10 12 15 18 20 22 25 27 28 28 29 30 30 29 29 28 27 27 28 31 33 33 35 38 40 40 41 41 41 41 41 40 40 39 38 38 39 40 41 42
10 9 8 9 11 13 15 17 18 18 21 24 28 30 28 28 27 26 25 26 26 26 28 31 34 34 36 38 38 38 39 39 39 40 40 40 40 39 38 38 38 39 40 41
9 8 8 9 10 12 13 15 15 15 16 18 22 25 22 21 21 22 23 24 25 26 29 32 33 35 36 35 35 35 36 37 38 38 39 39 39 39 38 38 38 38 39 40
8 8 8 7 8 10 11 12 12 13 14 16 17 20 18 18 18 19 20 21 23 25 28 30 32 33 33 34 34 34 35 36 37 38 38 39 39 39 39 39 39 39 39 40
7 7 6 5 5 6 8 8 8 9 11 12 14 18 17 17 17 18 19 22 23 25 28 29 31 32 32 33 33 33 34 35 36 37 38 39 40 40 40 40 40 40 40 40
4 5 6 5 5 6 6 6 6 5 6 8 13 16 17 18 19 21 23 25 26 27 28 28 30 30 31 32 32 33 33 34 35 36 37 38 39 40 41 41 41 41 41 41
3 4 6 7 7 6 6 6 7 7 6 7 11 16 18 20 22 24 26 27 27 28 28 29 30 31 32 33 34 34 34 34 35 36 37 38 39 39 40 41 42 42 42 42
6 4 6 7 8 7 8 8 9 9 10 8 8 12 18 21 24 26 27 28 28 28 29 30 31 32 33 34 35 35 35 35 36 36 37 38 38 39 40 40 41 41 42 42
8 6 5 7 8 9 9 10 11 13 14 15 14 12 18 21 23 25 27 28 30 31 31 32 33 33 34 34 35 36 37 37 37 37 37 37 37 38 38 39 39 40 40 41
8 7 6 8 9 10 12 13 15 17 18 19 20 19 21 23 25 27 29 31 33 34 35 35 35 36 35 35 36 37 37 37 38 38 37 37 36 36 36 36 37 38 38 38
7 8 8 9 11 13 15 16 18 20 21 21 23 26 26 27 28 30 32 34 35 37 37 38 37 37 37 37 37 38 38 38 38 38 37 36 35 35 35 35 35 35 36 35
8 9 10 11 13 15 16 18 20 23 25 25 26 28 28 28 30 32 34 35 37 39 40 40 40 40 39 39 38 39 39 39 38 38 37 37 35 35 34 34 34 33 32 32
12 12 13 14 16 18 19 20 22 25 27 28 28 28 29 30 32 34 36 38 40 41 42 43 44 44 43 42 41 40 40 40 38 38 37 36 35 34 33 33 32 31 29 28
16 16 16 17 19 21 22 24 25 26 27 27 29 30 31 34 36 39 41 43 44 46 46 47 47 46 46 46 44 43 41 40 39 38 37 36 35 34 32 31 30 28 27 25
18 19 18 18 20 22 25 25 25 26 27 28 30 33 35 38 41 44 46 48 49 50 50 51 51 50 50 49 48 45 43 41 40 39 37 36 35 33 32 31 29 27 24 23
19 19 19 19 20 23 26 26 26 27 29 30 32 36 39 42 44 47 50 52 53 54 55 55 55 54 54 53 51 49 47 43 41 39 37 35 35 33 31 29 27 25 22 21
23 23 24 25 26 26 26 27 29 31 33 33 36 40 44 47 49 51 54 56 58 59 59 60 59 58 57 56 54 52 49 45 42 39 37 35 34 32 30 28 26 23 20 18
26 27 28 29 31 31 30 28 30 35 39 39 43 47 50 52 55 56 57 59 60 61 62 62 62 61 60 58 55 53 50 47 43 40 37 36 34 32 31 28 25 22 19 18
29 29 30 31 33 35 35 35 38 40 44 47 50 53 55 58 60 62 64 65 66 66 66 66 65 64 61 59 55 53 51 48 45 41 39 37 35 32 30 27 24 21 19 17
29 30 31 32 34 36 38 41 43 45 48 52 54 57 60 62 65 66 68 69 69 69 69 67 65 63 60 58 56 54 51 49 46 43 41 38 35 32 29 26 24 21 20 17
28 30 32 35 37 40 43 45 47 50 53 56 58 61 64 67 69 70 70 71 71 70 69 66 63 60 57 55 54 53 51 49 48 45 42 39 36 32 29 26 24 22 20 18
31 34 36 39 41 43 46 48 51 54 57 60 63 66 68 70 71 71 72 71 68 66 64 61 58 55 52 51 51 51 50 48 48 46 44 41 38 34 30 28 25 23 22 20
34 37 39 41 44 46 48 51 54 57 60 63 65 68 70 71 70 69 67 63 61 58 55 53 50 49 48 47 47 47 47 48 46 46 44 40 37 34 31 29 27 25 23 22
37 38 41 43 45 48 51 54 57 60 63 65 67 68 68 68 66 63 60 56 53 51 48 46 45 45 45 45 44 43 44 45 45 46 44 40 37 35 33 30 27 26 25 24

GEFSCGP_500_meanwind_060.txt.gz
Wind_Speed
18 20 23 25 27 29 32 33 34 35 35 35 35 35 34 34 34 34 33 30 28 28 28 30 31 32 33 34 34 35 35 35 36 37 37 36 36 35 35 35 34 35 36 37
14 17 19 21 23 26 29 30 31 32 33 33 33 34 33 33 33 32 31 30 29 29 30 32 32 32 33 34 35 35 36 36 37 37 37 36 35 35 34 34 34 34 34 35
11 13 15 17 20 23 26 27 28 29 30 31 32 32 32 32 31 31 31 30 30 31 32 34 33 33 34 35 36 36 36 36 36 36 36 35 34 34 34 33 33 33 34 34
10 11 13 15 17 19 22 24 25 25 26 27 29 31 31 31 32 32 32 32 33 34 34 33 32 33 34 36 36 36 35 35 35 35 34 33 33 32 32 33 33 34 34 34
10 12 14 15 15 17 19 20 21 22 22 24 26 29 30 30 32 33 33 33 33 32 31 31 30 31 33 34 35 35 34 33 33 32 32 32 31 32 32 33 33 34 34 34
10 11 12 13 14 15 17 18 19 20 20 22 24 25 27 28 28 29 30 29 29 29 28 28 29 30 32 33 33 33 32 32 32 32 31 31 31 31 32 32 33 34 35 35
9 11 11 12 13 13 15 15 16 17 17 18 20 21 22 23 24 24 25 26 26 26 26 27 28 30 31 31 31 31 31 31 31 31 31 31 31 32 32 33 33 34 34 35
6 8 9 10 12 12 13 13 14 14 15 16 17 18 19 20 21 22 23 24 25 26 26 27 28 28 29 30 30 30 30 31 31 31 31 31 32 32 33 33 34 34 35 35
5 6 8 10 11 12 12 12 13 14 14 15 16 17 18 20 21 22 23 24 25 25 26 27 28 29 29 30 30 30 31 31 32 32 32 32 33 33 34 34 35 35 35 35
5 4 7 9 11 11 12 12 13 14 16 16 16 18 18 19 20 22 24 25 26 27 28 29 30 30 31 32 32 32 33 34 34 35 35 35 35 35 36 36 36 36 36 36
5 6 6 8 9 10 12 13 14 16 18 20 20 21 21 22 24 25 26 27 28 30 31 32 33 34 35 35 36 36 37 37 38 38 38 39 39 38 38 38 38 37 37 36
7 8 9 11 11 12 13 15 17 20 21 23 25 26 24 25 27 28 30 31 32 33 35 36 37 39 40 41 42 42 42 42 42 42 42 42 42 41 41 40 40 39 37 37
9 10 11 12 15 16 17 19 21 23 25 26 28 31 30 31 31 32 33 35 36 37 38 40 42 44 45 46 47 47 47 47 46 46 45 45 44 43 43 42 41 40 38 37
11 12 14 16 18 20 21 23 25 28 29 30 31 33 35 35 36 37 37 38 40 41 43 45 47 49 50 51 52 52 52 52 51 50 49 47 46 45 44 43 42 41 39 38
13 14 16 18 20 22 23 24 25 28 30 33 33 35 36 36 38 39 40 42 44 45 47 49 51 53 54 55 56 57 57 56 55 54 52 50 49 48 46 45 43 42 40 38
17 18 20 21 23 24 25 26 27 29 31 33 35 36 37 38 40 42 44 46 48 50 52 54 56 58 59 60 61 60 60 60 59 57 55 54 53 50 48 46 44 42 40 38
20 21 22 22 24 26 27 28 29 31 32 34 36 38 39 40 42 45 48 51 53 55 57 59 61 62 64 65 65 65 64 64 63 61 59 57 55 53 50 48 45 42 40 38
21 22 24 24 25 28 28 29 30 33 35 36 38 40 42 44 46 49 53 56 58 61 62 64 66 68 69 70 70 69 68 67 65 64 62 60 57 54 51 49 45 42 40 38
22 24 26 27 29 31 32 34 36 37 39 41 42 44 46 49 51 53 57 61 64 67 69 70 72 73 73 73 73 71 70 69 67 65 62 59 56 53 49 47 44 41 39 37
24 26 28 30 32 35 37 39 41 43 45 45 47 50 53 57 59 60 63 66 68 70 72 73 74 75 75 74 73 71 69 66 63 60 57 55 52 49 46 44 42 40 38 37
24 27 29 31 34 37 40 41 43 45 48 50 53 56 59 62 64 67 69 71 73 74 75 75 74 74 73 71 69 66 63 60 57 55 53 51 48 46 44 42 41 40 38 36
28 29 31 33 36 39 41 43 45 48 50 53 57 60 63 66 69 71 73 74 75 76 75 74 72 70 66 64 61 58 55 53 51 50 48 46 45 43 42 41 41 40 40 36
30 32 34 36 38 41 43 46 48 51 54 57 61 65 68 71 73 75 75 75 74 72 70 67 64 61 57 54 52 49 47 46 44 43 42 41 41 40 40 41 41 40 39 38
32 34 36 38 40 42 45 48 52 55 59 63 66 70 73 75 75 75 73 69 66 62 59 57 55 52 48 45 43 42 40 39 39 39 39 38 38 38 38 39 40 41 39 37
34 37 39 41 43 45 48 52 56 60 63 67 70 72 73 73 71 67 62 58 55 53 50 48 46 43 40 39 38 38 39 39 38 38 36 36 35 35 35 37 38 39 40 37
37 39 42 44 47 50 53 57 62 65 69 71 73 72 70 67 62 58 54 50 47 45 44 42 41 39 37 37 37 38 38 38 37 36 35 34 31 31 32 34 37 38 38 38

GEFSCGP_500_meanwind_066.txt.gz
Wind_Speed
14 15 17 20 22 25 27 28 30 34 35 35 36 37 38 37 36 35 34 33 33 32 33 33 33 34 35 36 37 37 35 34 33 32 30 28 27 26 25 24 24 24 24 25
9 10 13 15 17 20 22 23 25 30 31 32 34 35 36 36 35 34 33 32 32 32 32 33 34 35 36 37 37 37 37 35 33 32 30 28 27 26 25 23 23 23 23 23
4 7 8 9 11 12 15 17 20 23 26 26 28 28 30 32 32 32 32 32 32 32 33 34 35 36 37 37 37 37 36 34 33 32 30 28 27 25 24 23 23 23 23 23
4 5 6 7 8 8 10 15 17 19 19 18 22 19 25 28 28 29 30 31 32 33 34 35 36 36 36 36 36 36 35 35 34 32 30 29 27 26 25 24 24 24 23 23
6 6 6 7 9 9 11 13 14 15 16 16 18 16 19 25 25 27 28 29 31 32 34 34 34 34 35 35 35 36 36 35 34 33 32 30 29 28 27 27 26 26 25 25
8 8 8 9 10 11 12 12 13 13 12 12 15 14 17 22 21 22 23 25 26 27 28 30 31 32 34 34 35 36 36 35 35 34 33 31 31 30 30 29 28 28 28 27
7 8 9 9 9 11 11 10 10 9 10 11 16 14 17 18 17 18 20 22 23 25 27 29 30 32 34 35 35 35 36 36 35 35 34 34 34 33 32 32 31 30 30 30
4 5 9 9 8 9 10 10 9 10 10 12 16 16 17 16 17 18 19 21 23 25 27 29 31 33 35 36 37 37 37 37 37 36 36 36 36 36 35 35 34 33 32 32
4 6 10 9 9 9 9 9 11 12 13 14 14 19 18 17 19 20 21 23 25 27 29 31 33 35 36 38 39 39 39 39 39 39 38 38 38 37 37 37 36 35 34 34
6 6 8 10 9 9 9 11 12 12 14 14 15 18 23 21 22 24 26 28 30 32 34 35 36 38 39 40 41 42 42 42 41 41 41 40 40 40 39 39 38 37 37 36
7 7 8 11 11 11 13 14 14 15 18 19 19 21 26 26 27 29 31 33 34 36 37 39 40 41 43 43 44 45 45 45 45 45 44 44 44 43 43 42 41 40 39 38
8 9 10 12 14 15 16 17 19 20 21 23 24 28 27 28 30 32 34 36 37 39 40 41 43 44 45 46 47 47 48 49 49 49 49 49 48 48 47 46 45 43 41 40
10 11 11 13 18 20 20 21 22 23 24 26 26 31 32 33 34 36 37 38 39 41 42 43 45 46 47 48 49 50 51 52 53 54 54 54 53 52 52 51 49 47 45 43
12 12 13 14 16 20 23 24 24 25 26 27 29 34 36 37 39 40 41 42 43 44 45 47 48 49 50 52 53 55 56 57 58 58 59 59 58 57 56 55 53 52 50 48
14 15 16 18 20 21 23 24 25 26 28 30 33 36 39 40 42 43 44 45 46 48 49 51 52 54 55 57 59 61 62 63 63 64 64 64 63 62 60 59 57 55 54 51
16 17 18 18 20 22 24 25 27 28 30 33 36 39 40 42 44 45 46 48 50 52 54 56 57 59 61 63 65 67 68 69 69 69 69 69 67 66 65 63 61 59 56 54
17 18 18 20 21 24 26 27 29 31 33 36 38 41 43 44 45 47 50 52 55 57 59 62 64 66 67 69 70 71 72 73 73 72 72 72 71 70 67 65 63 61 58 56
18 19 20 22 25 26 28 29 32 35 36 37 40 42 45 47 49 51 55 58 59 62 64 66 68 70 71 72 73 73 73 73 73 73 72 72 71 69 67 65 63 61 58 55
20 21 23 24 26 31 31 33 35 37 39 40 43 45 48 51 54 56 60 63 65 67 69 70 71 71 70 69 68 68 67 67 66 65 64 63 62 61 60 59 57 56 54 52
22 22 24 26 28 31 34 35 37 40 43 45 48 50 53 56 59 61 64 67 69 70 70 68 66 64 62 60 58 57 56 54 53 52 51 50 49 48 48 47 47 47 47 47
23 24 25 27 30 32 35 37 40 42 46 49 52 55 59 62 65 67 68 69 69 67 63 60 57 54 51 49 47 45 43 42 41 40 38 38 37 37 37 37 38 40 42 43
25 27 28 30 32 36 38 40 42 45 49 53 56 60 63 66 68 68 68 67 64 60 55 51 48 45 43 41 40 38 36 36 35 33 32 31 30 30 30 31 32 34 36 38
26 28 30 32 34 37 41 44 46 50 54 57 61 64 66 68 67 66 65 61 57 52 48 45 42 40 39 39 38 37 35 35 34 32 30 29 28 27 27 27 28 30 31 33
29 31 33 35 38 41 44 47 51 54 58 61 64 66 67 66 65 62 59 54 49 45 42 41 40 40 39 38 38 38 38 37 35 32 30 29 28 27 27 27 28 27 28 29
33 35 37 39 42 44 48 52 55 58 61 64 65 66 65 64 61 57 52 47 44 42 41 41 41 41 41 40 40 39 38 37 35 33 31 30 29 28 27 27 27 26 27 27
35 38 40 43 46 49 51 55 58 61 63 65 65 64 62 60 57 52 47 44 42 42 42 43 43 43 42 42 41 39 37 36 34 33 32 31 29 28 28 26 26 25 26 26

GEFSCGP_500_meanwind_072.txt.gz
Wind_Speed
8 7 5 8 12 16 17 17 17 16 21 26 28 27 25 28 33 35 36 36 36 36 37 36 35 36 37 37 37 36 37 38 38 38 38 38 36 33 32 29 28 28 27 27
4 6 10 13 14 14 13 14 14 16 20 26 29 28 25 27 31 33 35 34 34 36 37 36 35 35 35 36 36 37 38 39 39 39 39 38 36 34 32 30 28 27 26 26
4 9 11 10 8 6 6 9 13 16 18 20 19 20 19 22 27 31 32 31 31 33 33 31 33 34 34 35 35 38 39 39 40 41 39 38 35 34 31 29 28 27 26 26
4 8 10 7 6 6 8 12 15 17 18 18 16 18 19 23 28 30 27 26 27 26 28 29 30 32 34 35 36 38 39 40 40 39 38 37 35 32 29 29 29 28 27 26
4 7 8 8 9 10 11 14 15 14 14 13 13 16 19 24 28 28 26 27 29 28 28 28 30 32 33 35 36 37 37 38 39 38 39 37 34 32 31 30 30 30 29 29
4 6 8 9 11 11 11 10 9 10 15 18 17 17 20 24 27 28 30 30 30 30 26 27 29 30 32 34 35 36 36 37 38 37 38 38 36 34 33 33 33 32 32 32
5 8 7 8 9 10 11 9 11 15 18 20 16 13 18 22 23 27 31 31 31 30 30 31 30 31 33 34 35 37 38 39 39 39 40 39 38 37 36 36 35 34 34 34
6 8 4 9 12 12 10 9 11 16 17 20 20 19 21 22 24 27 28 29 31 33 34 34 34 35 36 38 39 41 42 42 43 43 43 43 43 42 41 40 39 38 38 37
6 7 8 12 12 10 10 9 10 14 14 14 16 24 27 26 26 26 28 31 34 37 38 38 39 39 40 42 44 45 46 47 47 48 48 48 48 47 46 45 44 43 42 41
8 9 8 10 11 11 13 13 14 15 16 17 16 25 32 32 32 32 33 34 37 40 41 42 43 43 44 46 47 48 49 50 51 52 52 53 52 52 51 50 50 49 47 45
9 8 5 8 11 11 13 15 16 18 19 21 22 27 32 34 34 36 38 40 41 43 45 46 47 48 48 49 51 51 52 53 54 55 55 56 56 56 55 55 54 53 52 50
9 9 8 8 10 13 13 16 19 20 22 22 23 29 31 33 35 37 40 43 44 46 49 50 51 52 53 53 54 55 56 57 58 58 59 59 59 59 59 59 58 57 56 55
11 11 9 10 13 15 17 18 21 24 26 26 27 32 34 37 39 41 44 46 48 50 52 54 55 55 56 57 58 58 59 60 61 62 63 63 64 64 64 64 63 62 61 60
12 12 12 12 12 13 17 19 21 24 27 28 31 36 39 41 43 46 49 51 53 54 56 56 57 58 59 60 61 62 63 64 64 65 65 66 66 67 67 67 67 67 65 64
12 12 13 13 12 12 16 19 22 25 28 32 35 40 43 44 46 49 51 54 56 58 59 60 61 62 63 64 65 66 66 66 66 66 66 66 67 67 68 68 68 68 68 67
13 13 14 14 12 12 18 22 24 28 32 36 38 42 44 47 49 52 54 57 59 61 63 64 66 67 68 68 68 68 67 66 66 65 64 64 65 65 64 64 65 65 65 65
15 16 17 17 15 16 22 25 28 32 36 40 42 44 47 49 51 54 56 60 63 65 66 68 69 69 69 68 66 64 62 60 59 58 57 57 56 57 57 57 57 58 58 59
16 17 19 20 20 20 25 27 30 34 39 42 44 47 50 53 55 57 60 63 65 66 67 68 67 66 64 61 58 55 53 51 50 48 46 44 42 42 42 43 44 46 48 49
20 21 22 23 22 27 31 32 35 39 43 46 48 51 54 56 58 59 61 62 63 64 65 65 63 61 57 53 51 48 46 44 42 39 37 35 34 32 31 31 32 33 35 37
23 24 25 26 28 31 34 37 40 43 46 51 53 56 58 60 61 60 61 62 64 65 64 62 59 55 51 49 47 45 42 40 38 36 33 31 30 30 29 29 29 29 29 30
21 24 26 28 30 35 37 41 44 45 49 51 54 56 59 60 62 62 63 64 64 62 59 56 53 50 47 45 44 42 41 40 38 36 34 33 32 31 30 29 28 27 27 27
24 27 29 31 33 37 40 43 46 49 51 54 56 58 60 62 62 63 63 63 61 58 54 51 49 47 46 45 44 43 42 41 39 38 37 36 34 33 32 30 28 27 26 25
26 29 32 34 36 39 43 46 49 52 55 57 58 60 62 63 62 63 62 60 56 53 51 50 49 48 47 47 46 45 43 42 41 39 38 36 35 34 32 30 28 27 26 24
31 31 33 36 39 42 45 48 51 53 56 57 59 61 62 62 62 62 59 56 53 52 51 50 50 49 47 47 47 45 43 42 41 39 38 36 35 33 31 30 28 27 25 24
30 33 35 38 41 42 45 49 52 55 56 58 60 61 61 62 61 59 56 54 53 52 51 50 50 49 47 47 45 43 41 39 38 37 35 34 33 31 30 28 27 26 25 24
33 35 38 40 43 46 48 51 54 56 57 59 61 60 60 60 58 56 54 54 53 52 51 50 50 49 47 45 43 40 38 36 34 33 32 31 29 28 27 26 25 24 23 22